Regional Weather Roundup
Issued by NWS

Home | Current Version | Previous Version | Text Only | Print | Product List | Glossary Off
Versions: 1 2 3 4 5 6 7 8 9 10 11 12 13 14 15 16 17 18 19 20 21 22 23 24 25 26 27 28 29 30 31 32 33 34 35 36 37 38 39 40 41 42 43 44 45 46 47 48 49 50

000
ASUS43 KMPX 180710
RWRMN
WEATHER ROUNDUP FOR MINNESOTA
NATIONAL WEATHER SERVICE TWIN CITIES/CHANHASSEN MN
200 AM CDT SAT APR 18 2015


NOTE: "FAIR" INDICATES FEW OR NO CLOUDS BELOW 12,000 FEET WITH NO
SIGNIFICANT WEATHER AND/OR OBSTRUCTIONS TO VISIBILITY. N/A MEANS
CURRENT SKY AND/OR WEATHER CONDITIONS ARE NOT AVAILABLE.

MNZ060>063-068>070-180800-
   Twin Cities Metro

CITY           SKY/WX    TMP DP  RH WIND       PRES   REMARKS
TWIN CITIES    PTCLDY    53  33  46 CALM      30.05R
ST PAUL        PTCLDY    49  39  68 CALM      30.06R
CRYSTAL        PTCLDY    47  34  60 CALM      30.05R
BLAINE         CLEAR     45  34  65 CALM      30.05R
LAKEVILLE      PTCLDY    45  37  76 CALM      30.06R
EDEN PRAIRIE   PTCLDY    53  31  42 S5        30.05R
SOUTH ST PAUL  PTCLDY    49  34  55 CALM      30.05R
LAKE ELMO      FAIR      43  36  75 CALM      30.06R
$$
MNZ001>005-007-008-013>017-022>024-027-028-180800-
   Northwest Minnesota

CITY           SKY/WX    TMP DP  RH WIND       PRES   REMARKS
BEMIDJI        CLEAR     40  27  61 NE5       30.14R
HALLOCK        CLEAR     39  28  65 E8        30.18R
ROSEAU         CLEAR     34  28  80 E6        30.20S WCI  29
WARROAD        CLEAR     36  30  80 E5        30.21S
THIEF RVR FALL CLEAR     43  28  56 NE10      30.15F
CROOKSTON      CLEAR     41  28  60 E6        30.15S
FOSSTON        FAIR      39  23  52 NE7       30.15R
DETROIT LAKES  CLEAR     48  28  46 E6        30.12R
MOORHEAD       CLEAR     43  21  42 N5        30.13R
PARK RAPIDS    CLEAR     49  24  37 NE8       30.11R
MAHNOMEN       FAIR      40  26  57 NE8       30.12S
$$
MNZ006-009>011-018-025>026-180800-
   North Central Minnesota

CITY           SKY/WX    TMP DP  RH WIND       PRES   REMARKS
BAUDETTE       CLEAR     36  29  75 E3        30.20S
FLAG ISLAND    CLEAR     37  30  75 CALM      30.20R
INTL FALLS     CLEAR     30  26  85 CALM      30.20R
WASKISH        CLEAR     39  30  70 NE9       30.17S
BIG FORK       CLEAR     43  30  61 NE6       30.15S
LONGVILLE      CLEAR     46  27  46 CALM      30.12S
GRAND RAPIDS   CLEAR     46  27  46 N5        30.14R
ORR            CLEAR     37  28  70 CALM      30.16S
COOK           CLEAR     39  30  70 NE5       30.18R
WALKER         FAIR      46  29  51 NE6       30.13R
$$
MNZ012-019>021-037-180800-
   Northeast Minnesota

CITY           SKY/WX    TMP DP  RH WIND       PRES   REMARKS
DULUTH         CLEAR     48  29  47 NE12      30.12R
ELY            CLEAR     39  30  70 CALM      30.18R
HIBBING        CLEAR     44  29  55 NE7       30.14R
EVELETH        CLEAR     43  30  61 NE8       30.15R
DULUTH HARBOR  CLEAR     45  36  70 NE14      30.14R
TWO HARBORS    CLEAR     48  34  57 NE7       30.12R
SILVER BAY     CLEAR     46  30  53 N7        30.13R
GRAND MARAIS     N/A     43  31  62 SE7       30.17R
G MARAIS ARPRT CLEAR     36  27  69 N12G17    30.15R
$$
MNZ029>031-032-039>041-046>048-054>057-064-180800-
   West Central Minnesota

CITY           SKY/WX    TMP DP  RH WIND       PRES   REMARKS
FERGUS FALLS   CLEAR     54  21  28 E10       30.09S
WHEATON        PTCLDY    45  21  39 N5        30.09S
MORRIS         CLEAR     43  19  39 NE7       30.07R
ALEXANDRIA     PTCLDY    52  26  36 NE10      30.09R
ELBOW LAKE     FAIR      54  29  39 E13       30.07S
WADENA         CLEAR     46  23  39 NE3       30.10S
GLENWOOD       PTCLDY    52  27  37 N10       30.09R
APPLETON       PTCLDY    39  25  56 NE5       30.07R
BENSON         PTCLDY    37  30  75 CALM      30.08R
ORTONVILLE     PTCLDY    46  23  39 CALM      30.07R
MADISON        PTCLDY    43  23  45 CALM      30.06S
WILLMAR        FAIR      43  30  61 CALM      30.08S
$$
MNZ033>034-036-042>043-049>051-058-059-180800-
   Central Minnesota

CITY           SKY/WX    TMP DP  RH WIND       PRES   REMARKS
ST CLOUD       CLEAR     49  28  44 N7        30.06R
SAUK CENTRE    FAIR      52  28  39 NE5       30.09R
PAYNESVILLE    PTCLDY    43  26  51 CALM      30.08R
AITKIN         CLEAR     52  19  28 NE7       30.09R
PINE RIVER     CLEAR     48  27  43 N7        30.14R
BRAINERD       CLEAR     50  23  34 NE9       30.11R
STAPLES        CLEAR     48  23  37 CALM      30.10R
LONG PRAIRIE   FAIR      46  28  49 N5        30.10R
LITTLE FALLS   CLEAR     46  28  49 CALM      30.09R
LITCHFIELD     PTCLDY    48  36  61 CALM      30.07S
BUFFALO        CLEAR     43  31  61 CALM      30.07R
MAPLE LAKE     CLEAR     41  32  69 CALM      30.07R
$$
MNZ037-044-045-052-053-180800-
   East Central Minnesota

CITY           SKY/WX    TMP DP  RH WIND       PRES   REMARKS
PRINCETON      CLEAR     45  30  57 CALM      30.08R
MORA           CLEAR     50  27  40 NE3       30.10R
CAMBRIDGE      CLEAR     54  34  47 N3        30.06R
RUSH CITY      PTCLDY    52  29  41 NE7       30.08R
MOOSE LAKE     CLEAR     48  27  43 CALM      30.08R
HINCKLEY       FAIR      52  28  40 NE8       30.08R
CLOQUET        CLEAR     50  25  37 NE8       30.12R
MCGREGOR       CLEAR     50  28  43 NE6       30.11R
$$
MNZ071>073-080-081-089-090-097-098-180800-
   Southwest Minnesota

CITY           SKY/WX    TMP DP  RH WIND       PRES   REMARKS
MONTEVIDEO     MOCLDY    50  19  29 CALM      30.07R
GRANITE FALLS  MOCLDY    44  20  39 CALM      30.07S
CANBY          PTCLDY    42  25  51 W5        30.07S
MARSHALL       PTCLDY    45  19  36 W5        30.06S
REDWOOD FALLS  PTCLDY    55  20  25 N5        30.05S
OLIVIA         PTCLDY    43  21  42 N3        30.05S
PIPESTONE      MOCLDY    52  18  25 NE6       30.05F
WINDOM         PTCLDY    54  23  30 NE5       30.05F
WORTHINGTON    PTCLDY    52  21  30 N9        30.05F
JACKSON        MOCLDY    50  28  43 NE7       30.05F
TRACY          PTCLDY    51  24  35 CALM      30.07F
SLAYTON        PTCLDY    49  23  36 CALM      30.06F
$$
MNZ065>067-074>077-082>085-091>093-180800-
   South Central Minnesota

CITY           SKY/WX    TMP DP  RH WIND       PRES   REMARKS
MANKATO        CLEAR     57  28  33 N6        30.05F
NEW ULM        PTCLDY    57  21  24 CALM      30.05F
ST JAMES       PTCLDY    50  30  46 N3        30.06F
FAIRMONT       PTCLDY    55  30  38 N6        30.04S
GLENCOE        PTCLDY    47  37  68 CALM      30.05S
FARIBAULT      PTCLDY    45  37  76 CALM      30.06S
OWATONNA       CLEAR     43  34  70 CALM      30.05S
ALBERT LEA     CLEAR     52  43  71 CALM      30.04F
$$
MNZ078>079-086>088-094>096-180800-
   Southeast Minnesota

CITY           SKY/WX    TMP DP  RH WIND       PRES   REMARKS
ROCHESTER      PTCLDY    58  36  43 N6        30.06F
RED WING       MOCLDY    45  36  70 N3        30.05R
STANTON        PTCLDY    46  37  71 CALM      30.05R
DODGE CENTER   PTCLDY    57  32  38 NE7       30.05F
WINONA         PTCLDY    52  46  82 CALM      30.05R
AUSTIN         CLEAR     52  43  71 N5        30.04F
PRESTON        CLEAR     56  40  55 N5        30.05S
$$
ABBREVIATIONS USED IN REMARKS
   TC - TEMPERATURES IN CELSIUS
  WCI - WIND CHILL INDEX
   HX - HEAT INDEX
  VSB - VISIBILITY
$$



USA.gov is the U.S. government's official web portal to all federal, state and local government web resources and services.